Date,TemperatureHighF,TemperatureAvgF,TemperatureLowF,DewpointHighF,DewpointAvgF,DewpointLowF,HumidityHigh,HumidityAvg,HumidityLow,PressureMaxIn,PressureMinIn,WindSpeedMaxMPH,WindSpeedAvgMPH,GustSpeedMaxMPH,PrecipitationSumIn
2013-1-1,32,28,24,27,25,18,94,86,75,29.78,29.68,22,9,22,0.00
2013-1-2,26,20,16,18,10,5,80,65,48,29.93,29.75,16,5,16,0.00
2013-1-3,31,22,15,17,12,7,74,65,50,29.94,29.85,24,6,24,0.00
2013-1-4,28,25,23,17,16,14,76,70,60,29.95,29.87,24,10,24,0.00
2013-1-5,42,29,23,24,18,15,76,64,44,30.10,29.91,20,5,20,0.00
2013-1-6,37,33,30,29,24,20,89,71,61,29.93,29.78,16,6,16,0.00
2013-1-7,32,26,16,28,20,11,87,78,63,30.18,29.93,19,5,19,0.00
2013-1-8,46,30,11,26,18,6,84,65,42,30.13,30.03,17,3,17,0.00
2013-1-9,48,36,20,42,30,17,97,81,65,30.19,29.98,28,9,28,0.01
2013-1-10,51,39,29,31,26,23,80,59,43,30.34,30.16,13,3,13,0.00
2013-1-11,50,40,34,50,34,24,99,80,58,30.17,29.84,11,3,11,0.22
2013-1-12,62,55,48,54,52,48,99,88,72,29.94,29.86,13,3,13,0.01
2013-1-13,65,58,47,55,51,46,99,80,60,29.87,29.74,23,5,23,0.01
2013-1-14,57,40,31,55,36,27,98,86,69,30.09,29.76,26,5,26,0.08
2013-1-15,33,31,30,31,28,25,96,90,75,30.09,29.85,0,0,0,0.01
2013-1-16,36,33,30,35,30,25,97,91,73,29.87,29.64,18,4,18,0.13
2013-1-17,32,30,28,27,25,22,88,81,71,29.93,29.76,16,6,16,0.00
2013-1-18,30,25,16,23,9,-4,81,53,27,30.17,29.86,33,8,33,0.00
2013-1-19,51,42,28,14,8,0,34,28,24,30.05,29.66,27,9,27,0.07
2013-1-20,72,45,42,47,20,10,49,38,24,30.29,29.63,38,20,38,0.00
2013-1-21,72,62,56,60,56,46,96,82,60,29.56,29.46,11,4,11,0.00
2013-1-22,60,50,44,47,42,39,97,77,49,29.76,29.60,12,4,12,0.00
2013-1-23,62,48,38,44,39,32,99,74,35,29.82,29.71,8,2,8,0.01
2013-1-24,72,23,3,47,8,-18,99,55,24,29.95,29.69,8,2,8,0.00
2013-1-25,19,11,2,17,4,-10,91,74,52,29.93,29.49,16,3,16,0.00
2013-1-26,25,20,17,19,16,13,89,81,72,29.82,29.53,17,7,17,0.00
2013-1-27,20,20,20,14,14,14,76,76,76,29.82,29.82,6,6,8,0.00
2013-1-28,68,30,20,50,26,14,99,84,38,30.01,29.82,27,8,27,0.08
2013-1-29,66,54,50,54,51,49,99,90,63,29.99,29.82,14,5,14,0.04
2013-1-30,63,54,48,55,50,46,99,88,76,29.82,29.21,23,5,23,0.66
2013-1-31,48,26,19,46,18,3,97,72,49,29.68,29.17,34,16,34,0.11
2013-2-1,20,12,7,16,3,-5,84,67,53,30.10,29.63,23,9,23,0.00
2013-2-2,24,13,3,18,2,-6,85,62,35,30.10,29.80,15,5,15,0.00
2013-2-3,27,19,14,18,13,7,84,76,64,29.80,29.63,21,8,21,0.00
2013-2-4,30,20,14,29,11,6,97,69,43,29.86,29.70,24,7,24,0.00
2013-2-5,35,30,28,32,28,25,97,91,78,29.78,29.67,18,6,18,0.06
2013-2-6,28,25,15,27,20,12,95,81,69,30.14,29.77,17,5,17,0.00
2013-2-7,35,25,10,25,19,6,89,78,66,30.17,29.94,15,4,15,0.01
2013-2-8,38,29,21,37,26,18,95,88,78,29.95,29.67,32,7,34,0.28
2013-2-9,29,22,13,18,13,6,89,71,48,30.20,29.88,27,6,27,0.00
2013-2-10,47,27,4,25,11,-2,83,56,24,30.19,29.94,14,3,14,0.00
2013-2-11,58,44,33,48,31,15,99,69,24,29.95,29.62,29,9,29,0.05
2013-2-12,47,37,31,26,22,18,65,56,41,29.87,29.73,35,11,35,0.02
2013-2-13,41,33,25,31,24,16,98,73,47,29.81,29.54,10,2,10,0.00
2013-2-14,40,33,25,31,25,19,95,72,57,29.83,29.68,15,6,15,0.07
2013-2-15,42,34,29,31,27,22,88,76,54,29.89,29.79,18,6,18,0.00
2013-2-16,29,23,17,25,14,8,85,68,50,29.86,29.71,17,6,17,0.00
2013-2-17,18,15,12,12,7,-1,79,70,49,30.03,29.70,26,9,26,0.00
2013-2-18,72,26,7,47,5,-6,99,43,24,30.11,29.86,16,4,16,0.00
2013-2-19,42,33,20,37,24,14,93,73,51,29.86,29.55,25,8,25,0.11
2013-2-20,21,17,14,17,8,3,86,68,52,29.97,29.69,31,12,31,0.00
2013-2-21,24,17,14,12,8,4,77,66,57,30.14,29.93,23,6,23,0.00
2013-2-22,26,24,16,23,17,9,87,76,60,30.10,29.92,17,5,17,0.00
2013-2-23,52,36,26,41,32,23,94,84,62,29.92,29.70,11,3,11,0.00
2013-2-24,35,28,23,33,22,15,94,79,70,29.95,29.70,21,6,21,0.00
2013-2-25,44,30,21,22,17,13,81,60,35,30.03,29.94,13,4,13,0.00
2013-2-26,33,31,29,32,24,16,96,76,55,29.97,29.52,21,4,21,0.00
2013-2-27,39,34,31,35,32,29,97,89,72,29.57,29.47,20,4,20,0.13
2013-2-28,32,30,28,30,26,24,96,86,77,29.62,29.50,19,8,19,0.00
2013-3-1,30,27,23,27,22,17,91,81,70,29.78,29.62,17,8,17,0.00
2013-3-2,27,22,20,17,15,14,81,74,61,29.75,29.69,20,7,20,0.00
2013-3-3,26,22,19,17,14,10,84,73,54,29.78,29.69,20,8,20,0.00
2013-3-4,19,18,18,12,10,10,75,71,71,29.79,29.78,14,7,14,0.00
2013-3-5,49,25,16,26,10,5,88,60,23,29.95,29.61,17,6,17,0.24
2013-3-6,68,26,18,41,20,10,96,76,38,30.05,29.59,21,8,21,0.02
2013-3-7,38,32,29,28,24,21,89,74,54,30.12,29.96,21,8,21,0.00
2013-3-8,33,28,22,25,22,18,86,77,69,30.26,30.09,27,9,27,0.00
2013-3-9,56,34,14,26,16,9,88,55,22,30.27,30.15,6,2,6,0.00
2013-3-10,60,48,32,30,22,10,51,38,25,30.17,30.03,14,4,14,0.00
2013-3-11,53,49,45,48,33,26,99,58,40,30.04,29.75,16,6,16,0.06
2013-3-12,50,38,32,48,35,22,99,90,66,29.91,29.72,17,5,17,0.40
2013-3-13,35,28,23,28,22,12,91,76,53,29.96,29.82,22,8,22,0.01
2013-3-14,34,26,20,17,14,10,76,60,45,30.02,29.95,30,10,30,0.00
2013-3-15,47,36,25,32,22,13,69,59,46,30.00,29.74,24,7,24,0.00
2013-3-16,45,40,34,44,38,32,99,93,70,29.83,29.57,16,4,16,0.02
2013-3-17,36,31,26,33,24,18,99,77,58,30.09,29.83,17,6,17,0.00
2013-3-18,29,28,25,29,25,19,99,89,69,30.08,29.72,13,6,13,0.00
2013-3-19,42,35,29,37,22,6,99,65,26,29.85,29.65,36,12,36,0.14
2013-3-20,38,29,23,25,12,6,86,51,31,29.86,29.69,27,10,27,0.00
2013-3-21,24,20,15,18,8,-1,85,61,42,29.77,29.68,23,9,23,0.00
2013-3-22,33,25,20,16,13,10,75,61,47,29.90,29.74,17,8,17,0.00
2013-3-23,43,31,22,22,17,13,72,57,38,29.91,29.85,17,6,17,0.00
2013-3-24,34,28,22,25,19,16,87,71,52,29.89,29.49,11,3,11,0.00
2013-3-25,36,30,27,31,27,23,97,87,72,29.62,29.41,14,4,14,0.21
2013-3-26,40,32,28,30,26,21,95,81,56,29.95,29.62,24,8,24,0.02
2013-3-27,39,32,28,29,24,19,95,75,50,30.03,29.92,17,8,17,0.05
2013-3-28,39,33,29,28,26,23,89,77,63,30.14,29.99,18,8,18,0.00
2013-3-29,49,39,32,29,24,17,76,57,34,30.14,30.06,16,5,16,0.00
2013-3-30,54,39,25,26,18,10,83,48,24,30.14,29.99,10,2,10,0.00
2013-3-31,45,41,33,44,33,18,99,77,45,29.99,26.69,21,4,21,0.31
2013-4-1,44,38,30,41,29,11,94,72,38,29.89,29.67,23,10,23,0.02
2013-4-2,37,29,23,12,10,2,60,46,29,30.06,29.88,22,8,22,0.00
2013-4-3,38,30,22,15,9,2,57,43,26,30.25,30.04,29,8,29,0.00
2013-4-4,47,32,14,15,8,0,69,41,23,30.25,29.91,16,4,16,0.00
2013-4-5,53,42,32,28,22,14,67,46,31,30.04,29.85,28,8,28,0.00
2013-4-6,54,39,23,22,14,7,76,44,21,30.17,30.03,13,5,13,0.00
2013-4-7,70,54,42,51,33,15,99,48,32,30.06,29.88,27,7,27,0.07
2013-4-8,72,60,44,51,45,40,99,65,35,30.03,29.91,20,4,20,0.00
2013-4-9,79,66,55,56,52,46,86,63,41,30.09,29.92,15,5,15,0.00
2013-4-10,81,73,58,58,54,50,97,55,40,29.97,29.83,30,11,30,0.02
2013-4-11,79,65,50,60,54,46,99,73,35,29.92,29.67,18,4,18,0.00
2013-4-12,68,56,43,61,49,36,99,80,40,29.79,29.57,24,8,24,0.58
2013-4-13,56,45,37,37,32,25,84,64,35,29.92,29.77,22,8,22,0.00
2013-4-14,65,49,32,39,32,26,89,57,30,30.07,29.92,14,4,14,0.00
2013-4-15,59,54,50,50,46,38,88,73,56,30.14,30.02,22,8,22,0.00
2013-4-16,79,64,54,59,54,50,99,73,44,30.17,30.03,30,8,30,0.33
2013-4-17,70,60,52,60,57,51,99,90,67,30.18,30.09,13,3,13,0.00
2013-4-18,78,65,56,63,58,55,99,81,55,30.15,29.87,24,9,24,0.00
2013-4-19,73,58,42,61,52,35,99,83,60,29.88,29.54,24,10,24,0.28
2013-4-20,48,39,30,36,26,20,89,64,39,30.27,29.78,24,10,24,0.02
2013-4-21,54,38,24,28,19,10,88,53,24,30.44,30.26,14,4,14,0.00
2013-4-22,55,44,33,33,23,14,77,49,23,30.40,30.24,19,5,19,0.00
2013-4-23,68,49,32,42,36,30,98,66,31,30.26,30.00,12,3,12,0.00
2013-4-24,75,54,38,59,47,35,99,80,47,30.04,29.71,32,7,32,0.11
2013-4-25,57,44,34,36,28,18,95,61,26,30.24,30.04,17,6,17,0.02
2013-4-26,62,47,32,39,30,18,94,60,22,30.37,30.24,14,4,14,0.00
2013-4-27,69,52,30,43,33,27,95,57,24,30.33,30.17,12,3,12,0.00
2013-4-28,52,50,45,44,43,40,86,76,66,30.17,30.10,11,5,11,0.00
2013-4-29,51,51,51,44,44,44,75,75,75,30.11,30.11,6,6,11,0.00
2013-4-30,68,52,51,54,46,41,99,80,38,30.11,29.83,13,6,13,0.19
2013-5-1,70,57,49,51,40,25,99,59,23,30.09,29.96,13,5,13,0.00
2013-5-2,70,57,44,44,36,24,86,52,22,30.10,30.00,19,5,19,0.00
2013-5-3,66,56,46,46,42,31,86,62,39,30.04,29.96,17,6,17,0.00
2013-5-4,66,52,40,44,40,37,96,68,41,29.98,29.85,23,6,23,0.00
2013-5-5,67,53,42,42,35,20,85,57,21,29.91,29.80,17,5,17,0.00
2013-5-6,58,50,43,54,48,40,99,93,77,29.86,29.76,17,5,17,0.05
2013-5-7,58,55,54,56,54,53,99,98,92,29.77,29.67,24,8,24,0.90
2013-5-8,71,56,46,54,50,43,99,84,39,29.75,29.64,14,4,24,0.53
2013-5-9,72,59,50,59,54,50,99,84,54,29.78,29.65,15,4,15,0.05
2013-5-10,78,62,50,61,55,50,99,81,45,29.79,29.60,30,4,30,0.20
2013-5-11,62,58,51,61,56,49,99,94,79,29.61,29.53,16,6,16,0.53
2013-5-12,51,45,39,49,33,24,99,66,44,29.74,29.54,24,8,24,0.06
2013-5-13,50,41,34,31,26,20,76,56,34,29.87,29.72,23,7,23,0.00
2013-5-14,61,45,26,39,30,23,96,61,32,29.88,29.72,13,3,13,0.00
2013-5-15,84,70,46,60,54,38,94,60,42,29.72,29.52,22,8,22,0.00
2013-5-16,74,66,59,62,59,53,99,80,52,29.75,29.57,19,8,19,0.30
2013-5-17,82,67,54,61,53,35,99,68,24,29.87,29.74,13,3,13,0.00
2013-5-18,76,63,54,63,57,48,99,82,60,29.91,29.85,14,3,14,0.00
2013-5-19,58,58,58,58,58,58,99,99,99,29.90,29.90,3,3,7,0.00
2013-5-20,58,58,58,58,58,58,99,99,99,29.90,29.90,3,3,7,0.00
2013-5-21,58,58,58,58,58,58,99,99,99,29.90,29.90,3,3,7,0.00
2013-5-22,74,60,58,66,58,40,99,97,36,30.18,29.90,8,3,8,0.61
2013-5-23,79,65,57,65,59,53,99,85,45,29.92,29.81,21,4,21,0.11
2013-5-24,57,44,37,57,40,31,99,89,69,30.20,29.85,23,7,23,0.12
2013-5-25,59,45,33,39,34,30,95,69,40,30.22,30.15,25,5,25,0.00
2013-5-26,64,51,39,40,34,28,93,57,31,30.25,30.18,21,5,21,0.00
2013-5-27,62,51,33,53,43,33,99,79,40,30.27,30.17,6,1,6,0.01
2013-5-28,80,63,50,65,56,50,99,81,45,30.18,30.07,12,2,12,0.09
2013-5-29,83,71,56,64,59,54,99,69,41,30.17,30.10,11,4,11,0.00
2013-5-30,91,74,55,68,60,54,99,70,33,30.25,30.15,8,2,8,0.00
2013-5-31,91,73,58,67,61,53,99,73,32,30.20,30.05,10,2,10,0.17
2013-6-1,90,72,59,72,63,59,99,77,44,30.10,29.94,10,2,10,0.01
2013-6-2,78,70,62,67,63,60,98,81,58,29.95,29.88,14,4,14,0.01
2013-6-3,70,61,50,66,59,50,99,92,67,30.05,29.92,15,3,15,0.08
2013-6-4,73,56,38,51,45,38,99,71,36,30.17,30.05,14,3,14,0.00
2013-6-5,77,63,43,61,55,42,99,77,55,30.18,30.03,11,3,11,0.00
2013-6-6,63,60,58,61,59,58,99,97,88,30.04,29.88,11,3,11,0.53
2013-6-7,67,62,59,66,62,58,99,98,95,29.88,29.75,13,2,13,0.27
2013-6-8,72,60,54,60,57,53,99,88,62,30.15,29.85,10,2,10,0.01
2013-6-9,79,66,53,67,61,52,99,86,63,30.22,29.40,10,2,10,0.00
2013-6-10,75,66,61,71,64,60,99,94,73,30.12,29.85,9,3,9,0.45
2013-6-11,74,65,62,67,63,60,99,93,74,29.95,29.85,14,4,14,0.14
2013-6-12,84,72,63,70,66,62,99,84,56,29.97,29.85,14,3,14,0.00
2013-6-13,72,65,58,69,63,54,99,94,82,29.86,29.62,22,6,22,0.65
2013-6-14,73,62,53,57,54,51,98,79,51,30.07,29.76,22,5,22,0.00
2013-6-15,78,64,49,59,52,44,99,69,36,30.15,30.05,14,2,14,0.00
2013-6-16,73,65,58,67,62,53,99,90,75,30.09,29.96,14,4,14,0.01
2013-6-17,82,70,61,68,64,60,99,84,52,30.03,29.96,13,4,13,0.06
2013-6-18,75,66,59,68,63,59,99,92,76,30.00,29.88,16,1,16,0.06
2013-6-19,78,65,57,61,58,54,99,82,50,30.18,29.97,11,2,11,0.00
2013-6-20,84,67,51,67,59,51,99,80,40,30.25,30.18,8,1,8,0.00
2013-6-21,85,70,57,68,61,54,99,79,42,30.29,30.22,11,2,11,0.00
2013-6-22,89,73,57,69,63,57,99,76,40,30.26,30.15,11,2,11,0.00
2013-6-23,89,72,58,74,65,58,99,82,46,30.22,30.11,8,1,8,0.07
2013-6-24,86,72,59,73,65,59,99,81,51,30.20,30.09,11,2,11,0.11
2013-6-25,86,74,62,70,66,60,99,80,51,30.13,29.98,24,4,24,0.11
2013-6-26,80,69,61,71,66,60,99,92,69,30.03,29.91,17,2,17,0.20
2013-6-27,70,66,61,69,65,10,99,98,95,29.91,29.72,10,2,10,0.79
2013-6-28,80,67,59,70,65,57,99,93,65,29.73,29.60,27,3,27,0.24
2013-6-29,79,68,59,67,61,58,99,82,55,29.79,29.62,8,2,8,0.00
2013-6-30,88,70,55,70,63,55,99,83,43,29.92,29.78,11,1,11,0.18
2013-7-1,79,67,64,71,66,64,99,96,68,30.01,29.88,5,0,5,0.05
2013-7-2,81,72,65,75,70,65,99,92,71,30.16,30.01,11,1,11,0.30
2013-7-3,87,72,64,74,68,63,99,90,55,30.26,30.15,8,1,8,0.04
2013-7-4,87,73,65,74,68,65,99,87,54,30.28,30.20,8,1,8,0.07
2013-7-5,86,74,63,75,68,62,99,86,53,30.25,30.17,7,1,11,0.37
2013-7-6,90,76,64,74,69,63,99,82,53,30.26,30.11,11,2,11,0.00
2013-7-7,85,70,64,71,68,63,99,93,63,30.18,30.08,20,1,20,0.59
2013-7-8,82,72,65,68,66,63,99,84,60,30.18,30.11,11,3,11,0.00
2013-7-9,81,71,65,73,69,65,99,93,76,30.16,30.06,9,2,9,0.25
2013-7-10,86,73,64,75,69,63,99,88,58,30.10,29.93,24,4,24,0.21
2013-7-11,79,68,63,69,64,62,99,89,66,30.05,29.94,13,4,13,0.00
2013-7-12,72,65,59,66,62,59,99,91,72,30.14,30.01,11,3,11,0.07
2013-7-13,80,70,63,70,66,62,99,91,69,30.31,30.13,11,2,11,0.00
2013-7-14,87,75,66,72,68,65,99,82,57,30.36,30.29,14,2,14,0.00
2013-7-15,89,75,61,73,67,61,99,80,52,30.40,30.31,11,2,11,0.00
2013-7-16,90,75,64,75,69,63,99,83,53,30.37,30.28,15,3,15,0.00
2013-7-17,91,77,66,75,71,66,99,84,51,30.35,30.21,12,2,12,0.00
2013-7-18,96,79,65,77,71,65,99,80,45,30.25,30.12,9,1,9,0.00
2013-7-19,89,76,69,77,71,68,99,88,63,30.14,29.97,14,2,14,0.04
2013-7-20,78,71,64,74,69,8,99,93,82,30.01,29.91,12,3,12,0.22
2013-7-21,85,72,65,72,68,64,99,88,62,30.04,29.98,7,0,7,0.05
2013-7-22,83,68,64,75,67,63,99,96,74,30.03,29.85,5,0,5,0.28
2013-7-23,82,69,61,70,66,60,99,90,64,29.85,26.78,14,3,14,0.40
2013-7-24,73,64,53,64,59,52,99,84,56,30.02,29.80,16,4,16,0.01
2013-7-25,78,61,48,59,52,44,99,78,36,30.13,30.00,14,2,14,0.00
2013-7-26,84,64,47,62,54,47,99,75,41,30.15,30.05,8,1,8,0.00
2013-7-27,73,64,55,69,62,54,99,94,83,30.08,29.93,8,1,8,0.01
2013-7-28,78,66,58,65,59,54,99,80,49,30.08,29.92,10,2,10,0.08
2013-7-29,72,61,47,58,54,47,99,79,52,30.22,30.08,13,2,13,0.00
2013-7-30,78,64,51,64,56,50,99,80,52,30.26,30.19,14,1,14,0.00
2013-7-31,80,64,52,65,60,51,99,88,56,30.21,30.01,8,1,8,0.00
2013-8-1,80,67,60,70,64,59,99,89,63,30.02,29.91,13,2,13,0.04
2013-8-2,78,64,53,64,59,52,99,84,53,30.03,29.96,10,2,10,0.00
2013-8-3,70,65,60,66,62,60,99,93,80,30.03,29.98,10,3,10,0.14
2013-8-4,73,61,50,60,55,50,99,83,52,30.11,30.01,18,3,18,0.00
2013-8-5,77,61,47,58,52,46,99,78,39,30.15,30.05,10,1,10,0.00
2013-8-6,81,65,53,65,59,52,99,84,47,30.08,30.03,8,1,8,0.00
2013-8-7,88,70,63,74,66,62,99,91,54,30.11,30.00,12,2,12,1.09
2013-8-8,80,69,61,77,68,8,99,96,77,30.06,29.99,8,1,8,1.32
2013-8-9,80,70,66,74,69,66,99,97,77,30.06,29.96,14,2,14,1.62
2013-8-10,83,69,61,66,63,58,99,83,48,30.15,30.06,11,1,11,0.01
2013-8-11,86,70,57,69,63,57,99,81,44,30.16,30.06,8,1,8,0.00
2013-8-12,83,71,61,68,64,60,99,83,54,30.11,29.97,10,1,10,0.00
2013-8-13,79,67,57,69,63,53,99,89,67,29.97,29.85,17,4,17,0.00
2013-8-14,64,55,48,55,51,48,99,87,70,30.15,29.97,15,3,15,0.00
2013-8-15,50,48,46,50,48,45,99,99,97,30.18,30.15,2,0,2,0.00
2013-8-16,79,60,46,58,54,45,99,81,45,30.22,30.15,8,1,8,0.00
2013-8-17,74,61,47,60,55,47,99,83,56,30.29,30.22,13,1,13,0.00
2013-8-18,69,62,55,64,59,55,99,93,79,30.28,30.17,6,1,6,0.53
2013-8-19,79,66,59,69,63,58,99,92,68,30.20,30.11,13,1,13,0.05
2013-8-20,84,66,52,66,59,52,99,82,43,30.25,30.15,8,1,8,0.01
2013-8-21,85,66,53,71,63,52,99,91,54,30.25,30.13,8,1,8,0.20
2013-8-22,81,68,62,71,65,62,99,91,64,30.16,30.03,17,2,17,0.04
2013-8-23,78,65,60,68,62,58,99,91,57,30.18,30.04,14,1,14,0.53
2013-8-24,82,64,56,65,59,55,99,84,49,30.36,30.18,11,1,11,0.00
2013-8-25,84,64,49,64,56,49,99,82,44,30.41,30.28,9,1,9,0.00
2013-8-26,82,68,54,66,61,53,99,82,55,30.31,30.08,13,3,13,0.00
2013-8-27,80,72,68,73,69,65,99,91,77,30.09,29.99,10,4,10,0.00
2013-8-28,74,69,66,74,69,8,99,98,12,30.02,29.85,10,2,10,0.91
2013-8-29,87,71,63,71,67,62,99,88,53,30.09,29.96,10,2,10,0.00
2013-8-30,88,68,56,72,63,56,99,88,51,30.09,27.59,6,1,6,0.00
2013-8-31,83,74,63,72,67,62,99,82,61,29.95,29.88,8,2,8,0.00
2013-9-1,80,79,64,69,69,63,99,71,69,29.91,29.88,2,2,2,0.00
2013-9-2,84,72,62,72,68,10,99,89,60,29.91,29.82,9,2,9,0.02
2013-9-3,75,64,55,66,59,54,99,85,54,30.06,29.87,16,3,16,0.00
2013-9-4,78,62,49,58,54,48,99,79,40,30.15,30.05,11,2,11,0.00
2013-9-5,74,62,53,63,56,48,99,83,51,30.20,30.10,17,4,17,0.00
2013-9-6,77,56,41,54,46,29,99,77,26,30.27,30.15,8,1,8,0.00
2013-9-7,80,60,43,61,49,35,99,75,26,30.17,30.01,8,1,8,0.00
2013-9-8,82,68,59,68,62,56,99,83,63,30.10,29.98,14,3,14,0.05
2013-9-9,77,64,55,67,60,54,99,88,65,30.19,30.10,7,1,7,0.00
2013-9-10,86,74,62,74,69,62,99,87,66,30.23,30.13,8,2,8,0.00
2013-9-11,89,73,67,75,70,66,99,92,56,30.23,30.09,8,1,8,0.00
2013-9-12,82,70,61,73,67,60,99,91,69,30.11,29.84,15,4,15,0.14
2013-9-13,68,56,47,60,53,45,99,90,57,30.01,29.84,20,5,20,0.13
2013-9-14,63,50,41,47,44,41,99,84,50,30.19,30.00,12,3,12,0.00
2013-9-15,73,54,37,56,48,36,99,83,49,30.19,30.10,8,2,8,0.00
2013-9-16,66,59,52,56,54,51,99,85,66,30.20,30.07,17,4,17,0.13
2013-9-17,66,62,46,54,52,40,79,72,66,30.18,29.76,4,2,8,2.87
2013-9-18,70,58,36,54,50,35,99,77,52,30.18,29.78,6,2,8,0.13
2013-9-19,75,61,50,64,57,50,99,90,65,30.18,29.71,6,1,8,0.00
2013-9-20,80,63,50,69,60,50,99,90,63,29.72,29.56,8,1,8,0.00
2013-9-21,71,61,54,67,60,53,99,97,84,29.56,29.34,24,2,24,0.45
2013-9-22,64,54,46,55,50,44,99,87,55,29.62,29.43,16,4,16,0.01
2013-9-23,59,48,37,47,43,36,99,85,62,29.74,29.62,12,4,12,0.00
2013-9-24,72,50,31,54,42,30,99,79,33,29.74,29.60,9,1,9,0.00
2013-9-25,62,57,47,51,50,46,99,78,67,29.62,29.55,2,0,2,0.00
2013-9-26,77,55,40,55,45,37,99,77,30,29.73,29.60,10,2,10,0.00
2013-9-27,75,54,39,59,48,38,99,85,47,29.86,29.73,11,1,11,0.00
2013-9-28,66,54,46,57,51,45,99,89,61,29.92,29.83,8,2,9,0.00
2013-9-29,74,55,41,54,49,41,99,83,47,29.83,29.68,9,1,9,0.00
2013-9-30,73,56,42,60,53,42,99,90,62,29.72,29.65,6,1,6,0.00
2013-10-1,69,58,50,61,57,50,99,95,74,29.75,29.68,6,1,6,0.00
2013-10-2,76,65,58,64,60,57,99,86,57,29.77,29.71,12,3,12,0.00
2013-10-3,81,65,50,69,59,50,99,85,55,29.80,29.70,7,1,7,0.00
2013-10-4,81,68,59,68,63,58,99,86,56,29.79,29.71,9,2,9,0.00
2013-10-5,84,71,61,67,63,60,99,81,48,29.78,29.67,9,2,9,0.00
2013-10-6,87,70,59,68,60,53,99,75,38,29.70,29.51,15,3,15,0.00
2013-10-7,67,56,46,63,52,42,99,86,66,29.74,29.41,15,6,15,0.52
2013-10-8,65,50,38,50,42,37,99,77,42,29.91,29.72,14,3,14,0.00
2013-10-9,64,51,42,46,42,38,95,73,43,29.94,29.86,11,2,11,0.00
2013-10-10,58,50,47,52,47,41,99,87,59,29.86,29.71,9,3,9,0.30
2013-10-11,57,53,50,57,53,50,99,99,97,29.71,29.66,14,6,14,0.38
2013-10-12,62,57,54,61,57,-6,99,98,91,29.83,29.67,11,3,11,0.09
2013-10-13,62,56,53,58,55,53,99,96,84,29.92,29.81,8,2,8,0.33
2013-10-14,64,56,52,60,55,52,99,96,83,29.93,29.84,5,1,5,0.00
2013-10-15,70,58,53,57,54,50,99,87,61,29.87,29.68,8,2,8,0.00
2013-10-16,70,59,48,60,54,48,99,85,60,29.68,29.54,11,2,11,0.00
2013-10-17,64,58,47,61,57,46,99,97,87,29.55,29.33,17,5,17,0.20
2013-10-18,59,48,38,46,41,36,99,78,45,29.65,29.51,17,5,17,0.00
2013-10-19,57,43,32,49,40,31,99,90,55,29.62,29.40,22,4,22,0.05
2013-10-20,55,44,36,39,35,31,97,76,43,29.69,29.53,17,6,17,0.00
2013-10-21,68,48,30,42,34,28,99,67,28,29.70,29.53,14,3,14,0.00
2013-10-22,52,45,33,47,36,26,99,72,45,29.54,29.47,17,5,17,0.05
2013-10-23,42,36,33,39,35,31,99,96,85,29.51,29.32,21,3,21,0.11
2013-10-24,39,34,31,35,30,23,98,84,60,29.70,29.50,17,7,17,0.05
2013-10-25,42,33,31,35,30,28,99,88,71,29.88,29.70,14,6,14,0.00
2013-10-26,50,38,27,30,24,16,95,63,30,29.85,29.52,27,7,27,0.00
2013-10-27,50,42,32,36,31,26,88,66,44,29.72,29.55,16,5,16,0.00
2013-10-28,62,42,27,43,31,26,99,71,29,29.88,29.71,9,1,9,0.00
2013-10-29,63,44,29,40,32,23,99,70,26,29.96,29.87,11,1,11,0.00
2013-10-30,62,51,38,56,47,34,99,88,73,29.88,29.76,11,2,11,0.01
2013-10-31,65,59,54,58,56,52,99,90,67,29.76,29.28,18,3,18,0.09
2013-11-1,66,57,43,58,48,41,95,75,51,29.37,29.12,26,8,26,0.13
2013-11-2,50,45,40,46,42,38,99,88,77,29.53,29.31,19,5,19,0.01
2013-11-3,49,39,28,40,31,20,99,75,36,29.99,29.53,17,6,17,0.05
2013-11-4,36,28,25,26,22,17,90,78,53,30.04,29.91,6,1,6,0.00
2013-11-5,51,39,30,36,25,20,84,61,36,29.99,29.84,8,2,8,0.00
2013-11-6,70,52,33,50,43,31,99,76,44,29.85,29.46,17,3,17,0.00
2013-11-7,61,45,34,54,39,21,99,83,57,29.56,29.38,21,8,30,0.27
2013-11-8,40,34,24,28,24,19,85,68,53,29.73,29.52,27,7,27,0.00
2013-11-9,56,41,22,33,19,11,97,53,21,29.72,29.46,22,6,22,0.00
2013-11-10,48,42,34,35,29,21,75,61,37,29.70,29.42,31,13,31,0.00
2013-11-11,54,41,32,38,24,11,88,59,23,29.72,29.47,23,7,23,0.06
2013-11-12,41,28,24,39,22,12,99,79,51,29.83,29.48,25,10,25,0.06
2013-11-13,33,26,21,20,17,15,86,69,53,29.89,29.76,21,8,21,0.00
2013-11-14,49,37,26,17,12,6,68,40,23,29.77,29.65,22,8,22,0.00
2013-11-15,54,46,41,41,17,7,95,37,23,29.70,29.62,16,6,16,0.01
2013-11-16,58,44,33,47,42,33,99,93,67,29.73,29.63,8,1,8,0.01
2013-11-17,56,50,49,55,48,47,99,94,89,29.63,29.15,28,1,28,0.18
2013-11-18,53,47,36,48,33,24,92,61,39,29.46,29.23,29,13,38,0.04
2013-11-19,36,31,26,25,22,19,77,70,63,29.80,29.46,31,8,31,0.00
2013-11-20,41,31,21,22,15,6,87,55,26,29.91,29.78,12,4,12,0.00
2013-11-21,49,37,26,37,29,17,88,73,55,29.91,29.75,10,2,10,0.00
2013-11-22,53,47,36,52,46,35,99,96,84,29.76,29.52,26,6,26,0.22
2013-11-23,36,31,28,35,25,20,97,80,70,29.67,29.58,23,8,23,0.00
2013-11-24,20,16,12,8,2,-3,76,54,41,29.86,29.66,27,9,27,0.00
2013-11-25,40,25,10,10,3,-3,61,42,24,29.85,29.65,14,4,14,0.00
2013-11-26,38,34,31,38,30,7,99,88,31,29.66,29.13,12,2,14,0.71
2013-11-27,35,26,17,34,23,8,99,88,65,29.48,29.10,14,0,14,0.00
2013-11-28,25,20,16,16,11,5,75,66,58,29.82,29.47,0,0,0,0.00
2013-11-29,33,25,18,20,16,12,86,67,54,30.04,29.81,10,2,10,0.00
2013-11-30,30,23,18,21,17,12,86,76,61,30.03,26.96,12,4,12,0.00
2013-12-1,48,35,18,33,25,13,88,68,41,29.70,29.44,14,3,14,0.00
2013-12-2,52,41,34,37,33,28,87,73,55,29.44,29.30,7,2,7,0.00
2013-12-3,55,41,33,44,34,30,98,78,49,29.44,29.32,24,1,24,0.01
2013-12-4,62,44,32,46,38,30,97,82,54,29.50,29.41,9,2,9,0.00
2013-12-5,71,54,43,60,51,42,99,92,63,29.49,29.40,19,3,19,0.52
2013-12-6,47,35,29,47,34,28,99,97,92,29.63,29.42,16,5,16,0.59
2013-12-7,29,24,20,28,21,16,98,87,77,29.92,29.61,0,0,0,0.00
2013-12-8,23,20,17,22,16,13,94,86,81,29.92,29.61,0,0,0,0.00
2013-12-9,39,32,23,38,30,22,99,94,81,29.62,29.46,25,5,25,0.05
2013-12-10,29,24,20,25,15,8,86,70,54,29.60,29.41,29,12,29,0.01
2013-12-11,29,21,17,19,10,3,86,62,35,29.71,29.59,22,11,22,0.00
2013-12-12,21,17,13,17,-1,-12,84,47,29,29.78,29.59,24,10,24,0.00
2013-12-13,34,25,17,12,5,-4,49,43,36,29.69,29.56,24,8,24,0.00
2013-12-14,32,29,26,31,23,10,99,82,46,29.67,29.16,15,3,15,0.00
2013-12-15,37,28,23,36,24,16,99,86,74,29.36,29.08,29,10,29,0.15
2013-12-16,28,23,19,24,18,13,92,81,63,29.53,29.36,20,5,20,0.00
2013-12-17,35,31,26,34,27,19,97,86,74,29.49,29.36,17,6,17,0.15
2013-12-18,27,24,21,21,17,15,86,74,63,29.60,29.42,22,7,22,0.00
2013-12-19,52,40,25,32,20,5,64,45,27,29.56,29.49,34,9,34,0.01
2013-12-20,56,50,38,49,36,21,90,61,38,29.54,29.42,24,6,24,0.01
2013-12-21,65,58,55,56,52,49,96,82,67,29.45,29.30,11,4,11,0.06
2013-12-22,66,58,55,57,52,49,94,81,68,29.47,29.22,33,8,33,0.18
2013-12-23,55,40,27,50,36,16,95,85,65,29.67,29.42,21,7,21,0.04
2013-12-24,27,20,10,18,10,-3,83,64,42,29.84,29.61,24,8,24,0.00
2013-12-25,30,18,7,10,3,-3,72,55,32,29.85,29.64,9,3,9,0.00
2013-12-26,33,28,23,25,16,9,86,61,46,29.75,29.57,27,7,27,0.01
2013-12-27,41,31,19,16,12,4,69,49,27,29.77,29.71,23,6,23,0.00
2013-12-28,50,41,30,23,18,12,54,41,28,29.73,29.55,17,6,17,0.00
2013-12-29,45,40,37,42,34,13,99,84,30,29.54,29.10,20,5,20,0.79
2013-12-30,37,26,19,35,22,13,92,85,76,29.57,29.30,23,6,23,0.05
2013-12-31,25,22,20,20,16,11,84,75,66,29.65,29.47,30,13,30,0.04
2014-1-1,43,30,20,21,15,12,77,57,31,29.72,29.50,23,6,24,0.00
2014-1-2,32,26,12,25,20,5,87,78,64,29.50,29.09,19,2,19,0.00